Location: Maccacari
(45.1333°N, 11.1333°E)
Time: 10:07:09
(UTC+00:00)

A-11 Canister half - Pass Details

Date: 27 January 2021
Orbit: 1524 x 1684 km, 47.3° (Epoch: 24 February)

Event Time Altitude Azimuth Distance (km) Brightness Sun altitude
Rises 19:36:21 0° 293° (WNW) 4,757 12.5 -35.2°
Reaches altitude 10° 19:39:36 10° 287° (WNW) 3,792 11.8 -35.8°
Maximum altitude 19:48:22 41° 222° (SW) 2,206 9.9 -37.3°
Enters shadow 19:51:00 35° 189° (S) 2,409 9.9 -37.8°
